EW3591 Weather Reports


time (UTC)temp
F
wind
direction
speed
knots
gust
knots
rain 1hr
in
rain 24hr
in
rain mn
in
humidity
%
barometer
mb
20260901061242 71 219 1.7 6.1 0.00 0.29 0.00 98 1013.4
20260901061042 71 214 1.7 5.2 0.00 0.29 0.00 98 1013.6
20260901060841 71 223 1.7 5.2 0.00 0.29 0.00 98 1013.6
20260901060641 71 229 2.6 5.2 0.00 0.29 0.00 98 1013.5
20260901060441 71 217 1.7 5.2 0.00 0.29 0.00 98 1013.6
20260901060240 71 215 1.7 4.3 0.00 0.29 0.00 98 1013.6
20260901060040 71 219 2.6 6.1 0.00 0.29 0.00 98 1013.7
20260901055840 71 213 1.7 6.1 0.00 0.29 0.00 98 1013.7
20260901055640 71 219 1.7 6.1 0.00 0.29 0.00 98 1013.8
20260901055439 71 226 2.6 6.1 0.00 0.29 0.00 98 1013.9
20260901055239 71 221 2.6 6.1 0.00 0.29 0.00 98 1013.9
20260901055039 71 224 1.7 6.1 0.00 0.29 0.00 98 1013.9
20260901054838 71 225 2.6 6.1 0.00 0.29 0.00 98 1014.0
20260901054638 71 240 1.7 6.1 0.00 0.29 0.00 98 1013.9
20260901054438 71 225 1.7 6.1 0.00 0.29 0.00 98 1013.9
20260901054237 71 226 2.6 6.1 0.00 0.29 0.00 98 1013.9
20260901054037 71 218 2.6 6.1 0.00 0.29 0.00 98 1014.1
20260901053837 71 199 2.6 5.2 0.00 0.29 0.00 98 1014.0
20260901053636 71 213 2.6 5.2 0.00 0.29 0.00 98 1014.1
20260901053436 71 215 2.6 5.2 0.00 0.29 0.00 98 1014.1
20260901053236 71 209 2.6 6.1 0.00 0.29 0.00 98 1014.0
20260901053035 71 223 1.7 6.1 0.00 0.29 0.00 98 1014.0
20260901052835 71 221 2.6 6.1 0.00 0.29 0.00 98 1013.9
20260901052635 71 215 3.5 6.1 0.00 0.29 0.00 98 1014.1
20260901052435 71 232 2.6 6.1 0.00 0.29 0.00 98 1014.1
20260901052234 71 226 2.6 6.1 0.00 0.29 0.00 98 1014.2
20260901052034 71 223 2.6 6.1 0.00 0.29 0.00 98 1014.2
20260901051834 71 225 2.6 5.2 0.00 0.29 0.00 98 1014.3
20260901051633 71 223 2.6 5.2 0.00 0.29 0.00 98 1014.3
20260901051433 71 219 1.7 5.2 0.00 0.29 0.00 98 1014.3
20260901051233 71 219 2.6 5.2 0.00 0.29 0.00 99 1014.2
20260901051032 71 217 3.5 5.2 0.00 0.29 0.00 99 1014.2
20260901050832 71 228 2.6 5.2 0.00 0.29 0.00 99 1014.3
20260901050632 71 230 1.7 5.2 0.00 0.29 0.00 99 1014.4
20260901050431 71 235 1.7 4.3 0.00 0.29 0.00 99 1014.4
20260901050231 71 229 2.6 4.3 0.00 0.29 0.00 99 1014.4
20260901050031 71 232 2.6 4.3 0.00 0.29 0.00 99 1014.4
20260901045831 71 235 1.7 5.2 0.00 0.29 0.00 99 1014.5
20260901045630 71 231 1.7 5.2 0.00 0.29 0.00 99 1014.4
20260901045430 71 229 1.7 5.2 0.00 0.29 0.00 99 1014.4
20260901045230 71 224 1.7 5.2 0.00 0.29 0.00 99 1014.4
20260901045029 71 191 1.7 5.2 0.00 0.29 0.00 99 1014.4
20260901044829 71 205 1.7 3.5 0.00 0.29 0.00 99 1014.5
20260901044629 71 224 1.7 3.5 0.00 0.29 0.00 99 1014.5
20260901044428 71 212 0.9 3.5 0.00 0.29 0.00 99 1014.5
20260901044228 71 207 0.9 3.5 0.00 0.29 0.00 99 1014.5
20260901044028 71 225 1.7 3.5 0.00 0.29 0.00 99 1014.5
20260901043827 71 218 0.9 2.6 0.00 0.29 0.00 99 1014.5
20260901043627 71 167 0.0 2.6 0.00 0.29 0.00 99 1014.5
20260901043427 71 0 0.0 0.0 0.00 0.29 0.00 99 1014.5
20260901043226 71 0 0.0 0.0 0.00 0.29 0.00 99 1014.6
20260901043026 71 0 0.0 0.0 0.00 0.29 0.00 99 1014.6
20260901042826 71 0 0.0 0.0 0.00 0.29 0.00 99 1014.6
20260901042626 71 0 0.0 0.0 0.00 0.29 0.00 99 1014.6
20260901042425 71 0 0.0 0.0 0.00 0.29 0.00 99 1014.7
20260901042225 71 0 0.0 0.0 0.00 0.29 0.00 99 1014.7
20260901042025 71 0 0.0 0.0 0.00 0.29 0.00 99 1014.7
20260901041824 71 0 0.0 0.0 0.00 0.29 0.00 99 1014.8
20260901041624 71 0 0.0 0.0 0.00 0.29 0.00 99 1014.8
20260901041424 71 0 0.0 0.0 0.00 0.29 0.00 99 1014.8
20260901041223 71 0 0.0 0.0 0.00 0.29 0.00 99 1014.8
20260901041023 71 0 0.0 0.0 0.00 0.29 0.00 99 1014.8
20260901040823 71 0 0.0 0.0 0.00 0.29 0.00 99 1014.9
20260901040622 71 0 0.0 0.0 0.00 0.29 0.00 99 1014.9
20260901040422 71 0 0.0 0.0 0.00 0.29 0.00 99 1014.8
20260901040222 71 0 0.0 0.0 0.00 0.29 0.00 99 1014.8
20260901040022 71 0 0.0 0.0 0.00 0.29 0.00 99 1014.8
20260901035821 71 0 0.0 0.0 0.00 0.31 0.29 99 1014.8
20260901035621 71 0 0.0 0.0 0.00 0.31 0.29 99 1014.9
20260901035421 71 0 0.0 0.9 0.00 0.31 0.29 99 1014.8
20260901035220 71 0 0.0 0.9 0.00 0.31 0.29 99 1014.9
20260901035020 71 0 0.0 0.9 0.00 0.31 0.29 99 1014.8
20260901034820 71 218 0.0 0.9 0.00 0.31 0.29 99 1014.9
20260901034619 71 218 0.0 0.9 0.00 0.31 0.29 99 1014.8
20260901034419 71 218 0.0 0.9 0.00 0.31 0.29 99 1014.8
20260901034219 71 218 0.0 0.9 0.00 0.31 0.29 99 1014.8
20260901034018 71 218 0.0 1.7 0.00 0.31 0.29 99 1014.9
20260901033818 71 218 0.0 1.7 0.00 0.31 0.29 99 1014.9
20260901033618 71 218 0.0 1.7 0.00 0.31 0.29 99 1014.8
20260901033417 71 218 0.0 2.6 0.00 0.31 0.29 99 1014.8
20260901033217 71 218 0.0 2.6 0.00 0.31 0.29 99 1014.8
20260901033017 71 218 0.9 2.6 0.00 0.31 0.29 99 1014.8
20260901032817 71 218 0.9 2.6 0.00 0.31 0.29 99 1014.9
20260901032616 71 218 0.9 2.6 0.00 0.31 0.29 99 1015.0
20260901032416 71 218 0.9 2.6 0.00 0.31 0.29 99 1014.9
20260901032216 71 218 0.9 2.6 0.00 0.31 0.29 99 1014.9
20260901032015 71 218 0.9 2.6 0.00 0.31 0.29 98 1014.9
20260901031815 71 218 0.9 2.6 0.00 0.31 0.29 98 1014.9
20260901031615 71 218 0.9 3.5 0.00 0.31 0.29 98 1014.9
20260901031414 71 217 0.9 3.5 0.00 0.31 0.29 98 1015.0
20260901031214 71 217 0.9 3.5 0.00 0.31 0.29 98 1014.9
20260901031014 71 230 0.9 3.5 0.00 0.31 0.29 98 1014.9
20260901030813 71 239 0.9 3.5 0.00 0.31 0.29 98 1015.0
20260901030613 71 239 0.9 3.5 0.00 0.31 0.29 98 1015.0
20260901030413 71 237 1.7 3.5 0.00 0.31 0.29 98 1015.0
20260901030213 71 227 0.9 3.5 0.00 0.31 0.29 98 1015.0
20260901030012 71 224 0.9 2.6 0.01 0.31 0.29 98 1015.1
20260901025812 71 199 0.9 2.6 0.01 0.42 0.29 98 1015.1
20260901025612 71 238 0.9 2.6 0.01 0.42 0.29 98 1015.2
20260901025411 71 260 0.9 1.7 0.01 0.42 0.29 98 1015.2
20260901025211 71 260 0.9 1.7 0.01 0.42 0.29 98 1015.2
20260901025011 71 260 0.9 1.7 0.01 0.42 0.29 98 1015.2
20260901024810 71 260 0.0 0.9 0.01 0.42 0.29 98 1015.3
20260901024610 71 260 0.0 0.9 0.01 0.42 0.29 98 1015.3
20260901024410 71 260 0.0 1.7 0.01 0.42 0.29 98 1015.2
20260901024209 71 260 0.0 1.7 0.01 0.42 0.29 98 1015.3
20260901024009 71 260 0.0 1.7 0.01 0.42 0.29 98 1015.3
20260901023809 71 260 0.0 1.7 0.01 0.42 0.29 98 1015.3
20260901023608 71 260 0.9 1.7 0.01 0.42 0.29 98 1015.4
20260901023408 71 260 0.0 1.7 0.01 0.42 0.29 98 1015.5
20260901023208 71 260 0.9 1.7 0.01 0.42 0.29 98 1015.6
20260901023007 71 260 0.0 2.6 0.01 0.42 0.29 98 1015.6
20260901022807 71 260 0.0 3.5 0.01 0.42 0.29 98 1015.7
20260901022607 72 260 0.0 3.5 0.01 0.42 0.29 98 1015.7
20260901022407 72 229 0.9 3.5 0.01 0.42 0.29 98 1015.7
20260901022206 72 238 1.7 3.5 0.01 0.42 0.29 98 1015.7
20260901022006 72 238 0.9 3.5 0.01 0.42 0.29 99 1015.6
20260901021806 72 237 0.9 3.5 0.01 0.42 0.29 99 1015.6
20260901021605 72 235 1.7 3.5 0.01 0.42 0.29 99 1015.6
20260901021405 72 232 1.7 3.5 0.01 0.42 0.29 99 1015.6
20260901021205 72 212 1.7 4.3 0.01 0.42 0.29 99 1015.6
20260901021004 72 226 1.7 4.3 0.01 0.42 0.29 99 1015.6
20260901020804 72 234 0.9 4.3 0.01 0.42 0.29 99 1015.6
20260901020604 72 233 1.7 4.3 0.01 0.42 0.29 99 1015.5
20260901020403 72 241 0.9 3.5 0.01 0.42 0.29 99 1015.5
20260901020203 72 239 0.9 2.6 0.01 0.42 0.29 99 1015.6
20260901020003 72 163 0.9 2.6 0.00 0.41 0.28 99 1015.7
20260901015803 72 138 0.0 2.6 0.00 0.49 0.28 99 1015.8
20260901015602 72 138 0.0 0.9 0.00 0.49 0.28 99 1015.8
20260901015402 72 138 0.0 0.9 0.00 0.49 0.28 99 1016.1
20260901015202 72 138 0.9 0.9 0.00 0.49 0.28 99 1016.0
20260831235442 73 203 0.0 1.7 0.00 0.49 0.28 96 1016.0
20260831235242 73 203 0.0 1.7 0.00 0.49 0.28 95 1016.0
20260831235042 73 203 0.0 2.6 0.00 0.49 0.28 95 1016.0
20260831234841 73 203 0.0 2.6 0.00 0.49 0.28 95 1016.1
20260831234641 73 207 0.0 3.5 0.00 0.49 0.28 95 1016.0
20260831234441 73 207 0.9 3.5 0.00 0.49 0.28 95 1016.0
20260831234240 73 211 0.9 3.5 0.00 0.49 0.28 95 1016.0
20260831234040 73 224 0.9 3.5 0.00 0.49 0.28 95 1015.9
20260831233840 73 227 0.9 3.5 0.00 0.49 0.28 95 1015.8
20260831233640 74 230 0.0 2.6 0.00 0.49 0.28 95 1015.8
20260831233439 74 230 0.9 2.6 0.00 0.49 0.28 95 1015.8
20260831233239 74 230 0.9 2.6 0.00 0.49 0.28 95 1015.8
20260831233039 74 230 0.9 2.6 0.00 0.49 0.28 94 1015.7
20260831232838 74 230 0.9 2.6 0.00 0.49 0.28 94 1015.8
20260831232638 74 230 0.0 1.7 0.00 0.49 0.28 94 1015.8
20260831232438 74 230 0.9 2.6 0.00 0.49 0.28 94 1015.8
20260831232237 74 230 0.0 2.6 0.00 0.49 0.28 94 1015.8
20260831232037 74 230 0.0 2.6 0.00 0.49 0.28 94 1015.8
20260831231837 74 219 0.9 2.6 0.00 0.49 0.28 94 1015.7
20260831231636 74 213 0.9 2.6 0.00 0.49 0.28 94 1015.8
20260831231436 74 215 0.9 2.6 0.00 0.49 0.28 94 1015.7
20260831231236 74 213 0.9 2.6 0.00 0.49 0.28 94 1015.6
20260831231036 74 231 0.9 2.6 0.00 0.49 0.28 93 1015.6
20260831230835 74 223 0.9 2.6 0.00 0.49 0.28 93 1015.5
20260831230635 74 222 0.9 2.6 0.00 0.49 0.28 93 1015.6
20260831230435 74 222 0.9 2.6 0.00 0.49 0.28 93 1015.6
20260831230234 74 222 0.9 2.6 0.00 0.49 0.28 93 1015.6
20260831230034 75 222 0.9 2.6 0.00 0.49 0.28 93 1015.5
20260831225834 75 222 0.9 2.6 0.00 0.50 0.28 92 1015.5
20260831225633 75 225 0.9 2.6 0.00 0.50 0.28 92 1015.5
20260831225433 75 234 0.9 2.6 0.00 0.50 0.28 92 1015.5
20260831225233 75 232 0.0 1.7 0.00 0.50 0.28 92 1015.6
20260831225032 75 0 0.0 1.7 0.00 0.50 0.28 92 1015.6
20260831224832 75 0 0.0 2.6 0.00 0.50 0.28 92 1015.6
20260831224632 75 232 0.0 2.6 0.00 0.50 0.28 92 1015.7
20260831224431 75 232 0.0 2.6 0.00 0.50 0.28 92 1015.7
20260831224231 75 228 0.9 2.6 0.00 0.50 0.28 92 1015.7
20260831224031 75 229 0.9 2.6 0.00 0.50 0.28 92 1015.7
20260831223831 76 253 0.0 1.7 0.00 0.50 0.28 92 1015.6
20260831223630 76 253 0.0 1.7 0.00 0.50 0.28 91 1015.7
20260831223430 76 253 0.0 1.7 0.00 0.50 0.28 91 1015.7
20260831223230 76 253 0.0 1.7 0.00 0.50 0.28 91 1015.8
20260831223029 76 253 0.0 1.7 0.00 0.50 0.28 91 1015.8
20260831222829 76 254 0.0 1.7 0.00 0.50 0.28 90 1015.8
20260831222629 76 259 0.0 1.7 0.00 0.50 0.28 90 1015.8
20260831222428 76 263 0.0 1.7 0.00 0.50 0.28 90 1015.8
20260831222228 76 263 0.0 2.6 0.00 0.50 0.28 90 1015.8
20260831222028 76 245 0.9 2.6 0.00 0.50 0.28 90 1015.8
20260831221827 76 258 0.0 2.6 0.00 0.50 0.28 90 1015.8
20260831221627 76 258 0.9 2.6 0.00 0.50 0.28 89 1015.8
20260831221427 76 288 0.9 2.6 0.00 0.50 0.28 89 1015.7
20260831221226 77 295 0.9 2.6 0.00 0.50 0.28 89 1015.8
20260831221026 77 230 0.9 3.5 0.00 0.50 0.28 89 1015.8
20260831220826 77 213 0.9 4.3 0.00 0.50 0.28 88 1015.7
20260831220626 77 202 0.0 4.3 0.00 0.50 0.28 88 1015.7
20260831220425 78 194 0.9 4.3 0.00 0.50 0.28 88 1015.8
20260831220225 78 218 0.9 4.3 0.00 0.50 0.28 87 1015.8
20260831220025 78 256 0.0 1.7 0.00 0.50 0.28 87 1015.9
20260831215824 78 216 0.0 2.6 0.00 0.51 0.28 87 1015.9
20260831215624 78 176 0.0 2.6 0.00 0.51 0.28 88 1015.8
20260831215424 78 159 0.0 2.6 0.00 0.51 0.28 88 1015.7
20260831215223 78 170 0.9 2.6 0.00 0.51 0.28 89 1015.8
20260831215023 77 181 0.9 2.6 0.00 0.51 0.28 89 1015.8
20260831214823 77 181 0.9 2.6 0.00 0.51 0.28 89 1015.8
20260831214623 77 206 0.9 2.6 0.00 0.51 0.28 89 1015.8
20260831214422 77 193 0.9 2.6 0.00 0.51 0.28 89 1015.9
20260831214222 77 157 0.9 2.6 0.00 0.51 0.28 89 1015.9
20260831214022 77 163 0.9 3.5 0.00 0.51 0.28 89 1015.8
20260831213821 77 130 0.0 3.5 0.00 0.51 0.28 90 1015.8
20260831213621 77 178 0.9 3.5 0.00 0.51 0.28 90 1015.7
20260831213421 77 187 0.9 3.5 0.00 0.51 0.28 90 1015.8
20260831213220 76 195 0.9 3.5 0.00 0.51 0.28 91 1015.7
20260831213020 76 250 0.9 2.6 0.00 0.51 0.28 91 1015.8
20260831212820 76 307 0.0 1.7 0.00 0.51 0.28 93 1015.8
20260831212619 75 330 0.0 0.9 0.00 0.51 0.28 93 1015.8
20260831212419 75 330 0.0 0.9 0.00 0.51 0.28 92 1015.8
20260831212219 75 330 0.0 1.7 0.00 0.51 0.28 93 1015.7
20260831212018 75 330 0.0 2.6 0.00 0.51 0.28 93 1015.8
20260831211818 75 330 0.0 2.6 0.00 0.51 0.28 93 1015.9
20260831211618 75 330 0.0 2.6 0.00 0.51 0.28 93 1016.0
20260831211417 75 331 0.0 2.6 0.00 0.51 0.28 94 1016.0
20260831211217 75 330 0.0 2.6 0.00 0.51 0.28 94 1016.1
20260831211017 74 330 0.0 2.6 0.00 0.51 0.28 94 1016.2
20260831210817 74 330 0.0 2.6 0.00 0.51 0.28 94 1016.2
20260831210616 74 301 0.9 2.6 0.00 0.51 0.28 93 1016.3
20260831210416 74 258 0.9 2.6 0.00 0.51 0.28 93 1016.3
20260831210216 74 258 0.0 2.6 0.00 0.51 0.28 93 1016.3
20260831210015 74 259 0.9 2.6 0.00 0.51 0.28 93 1016.3
20260831205815 75 259 0.9 2.6 0.00 0.54 0.28 93 1016.3
20260831205615 75 203 0.9 2.6 0.00 0.54 0.28 93 1016.4
20260831205414 75 264 0.9 2.6 0.00 0.54 0.28 94 1016.4
20260831205214 75 189 0.9 2.6 0.00 0.54 0.28 94 1016.4
20260831205014 75 52 0.9 2.6 0.00 0.54 0.28 94 1016.3
20260831204813 74 82 0.9 2.6 0.00 0.54 0.28 94 1016.4
20260831204613 74 104 0.0 2.6 0.00 0.54 0.28 95 1016.5
20260831204413 74 224 0.9 3.5 0.00 0.54 0.28 94 1016.4
20260831204212 74 246 0.9 3.5 0.00 0.54 0.28 95 1016.3
20260831204012 74 248 0.0 3.5 0.00 0.54 0.28 95 1016.3
20260831203812 74 250 0.9 3.5 0.00 0.54 0.28 95 1016.2
20260831203612 74 255 1.7 3.5 0.00 0.54 0.28 95 1016.1
20260831203411 74 240 1.7 3.5 0.00 0.54 0.28 95 1016.0
20260831203211 74 226 1.7 3.5 0.00 0.54 0.28 95 1016.1
20260831203011 74 224 0.9 3.5 0.00 0.54 0.28 95 1016.1
20260831202810 74 217 0.9 4.3 0.00 0.54 0.28 95 1016.1
20260831202610 74 193 1.7 4.3 0.00 0.54 0.28 95 1016.0
20260831202410 74 223 1.7 4.3 0.00 0.54 0.28 95 1016.0
20260831202209 74 131 0.9 4.3 0.00 0.54 0.28 96 1016.2
20260831202009 74 99 0.9 4.3 0.00 0.54 0.28 95 1016.3
20260831201809 74 52 0.9 4.3 0.00 0.54 0.28 95 1016.3
20260831201608 74 118 0.9 4.3 0.00 0.54 0.28 95 1016.4
20260831201408 74 136 0.9 4.3 0.00 0.54 0.28 95 1016.4
20260831201208 74 153 0.9 4.3 0.00 0.54 0.28 95 1016.4
20260831201008 74 277 0.9 1.7 0.00 0.54 0.28 95 1016.3
20260831200807 74 122 0.9 1.7 0.00 0.54 0.28 95 1016.3
20260831200607 74 131 0.9 1.7 0.00 0.54 0.28 95 1016.3
20260831200407 74 160 0.0 0.9 0.00 0.54 0.28 95 1016.3
20260831200206 74 160 0.0 0.9 0.00 0.54 0.28 95 1016.1
20260831200006 74 160 0.0 0.9 0.00 0.54 0.28 95 1016.2
20260831195806 74 160 0.0 0.9 0.00 0.56 0.28 95 1016.1
20260831195605 74 160 0.0 0.9 0.00 0.56 0.28 95 1016.1
20260831195405 74 202 0.0 1.7 0.00 0.56 0.28 95 1016.1
20260831195205 74 261 0.0 1.7 0.00 0.56 0.28 94 1016.1
20260831195004 74 284 0.0 1.7 0.00 0.56 0.28 94 1016.1
20260831194804 74 249 0.9 1.7 0.00 0.56 0.28 94 1016.0
20260831194604 74 225 0.9 1.7 0.00 0.56 0.28 94 1016.0
20260831194403 74 231 0.0 2.6 0.00 0.56 0.28 94 1015.9
20260831194203 74 227 0.9 3.5 0.00 0.56 0.28 94 1016.0
20260831194003 74 224 0.9 3.5 0.00 0.56 0.28 94 1015.9
20260831193803 74 194 0.9 4.3 0.00 0.56 0.28 94 1015.9
20260831193602 74 238 1.7 4.3 0.00 0.56 0.28 94 1015.9
20260831193402 74 259 1.7 4.3 0.00 0.56 0.28 94 1015.9
20260831193202 74 234 1.7 4.3 0.00 0.56 0.28 94 1015.9
20260831193001 74 251 0.9 4.3 0.00 0.56 0.28 94 1016.0
20260831192801 74 264 0.9 3.5 0.00 0.56 0.28 94 1016.0
20260831192601 74 227 1.7 3.5 0.00 0.56 0.28 94 1016.0
20260831192400 74 131 1.7 3.5 0.00 0.56 0.28 93 1016.1
20260831192200 75 202 1.7 3.5 0.00 0.56 0.28 94 1016.2
20260831192000 74 210 0.9 5.2 0.00 0.56 0.28 94 1016.3
20260831191759 75 184 0.9 6.1 0.00 0.56 0.28 94 1016.3
20260831191559 75 333 0.9 6.1 0.00 0.56 0.28 94 1016.3
20260831191359 75 346 0.9 6.1 0.00 0.56 0.28 94 1016.4
20260831191158 74 13 0.9 6.1 0.01 0.56 0.28 94 1016.3
20260831190958 74 273 0.9 6.1 0.01 0.56 0.28 94 1016.4
20260831190758 74 7 0.9 2.6 0.01 0.56 0.28 95 1016.4
20260831190558 74 263 0.9 2.6 0.01 0.56 0.28 95 1016.5
20260831190357 74 227 0.9 2.6 0.01 0.56 0.28 95 1016.5
20260831190157 74 252 0.9 5.2 0.01 0.56 0.28 96 1016.5
20260831185957 74 266 0.9 5.2 0.01 0.56 0.28 96 1016.6
20260831185756 75 234 0.9 5.2 0.01 0.56 0.28 96 1016.5
20260831185556 75 171 1.7 5.2 0.01 0.56 0.28 96 1016.5
20260831185356 74 210 1.7 5.2 0.01 0.56 0.28 96 1016.5
20260831185155 75 246 0.9 3.5 0.01 0.56 0.28 96 1016.6
20260831184955 75 227 0.9 1.7 0.01 0.56 0.28 96 1016.6
20260831184755 75 225 0.0 1.7 0.01 0.56 0.28 96 1016.6
20260831184554 75 225 0.0 1.7 0.01 0.56 0.28 96 1016.6
20260831184354 75 225 0.9 1.7 0.01 0.56 0.28 96 1016.6
20260831184154 75 225 0.0 1.7 0.01 0.56 0.28 96 1016.6
20260831183954 75 225 0.0 1.7 0.01 0.56 0.28 96 1016.7
20260831183753 75 225 0.0 1.7 0.01 0.56 0.28 96 1016.6
20260831183553 75 226 0.0 1.7 0.01 0.56 0.28 96 1016.6
20260831183353 75 227 0.0 1.7 0.01 0.56 0.28 96 1016.7
20260831183152 75 0 0.0 0.0 0.01 0.56 0.28 96 1016.6
20260831182952 75 0 0.0 0.0 0.01 0.56 0.28 97 1016.7
20260831182752 74 0 0.0 0.0 0.01 0.56 0.28 96 1016.6
20260831182551 74 0 0.0 1.7 0.01 0.56 0.28 96 1016.5
20260831182351 74 0 0.0 1.7 0.01 0.56 0.28 97 1016.6
20260831182151 74 0 0.0 2.6 0.01 0.56 0.28 97 1016.6
20260831181950 74 0 0.0 3.5 0.01 0.56 0.28 96 1016.6
20260831181750 74 227 0.0 3.5 0.01 0.56 0.28 96 1016.6
20260831181550 74 227 0.9 3.5 0.01 0.56 0.28 96 1016.6
20260831181350 74 226 0.9 3.5 0.01 0.56 0.28 96 1016.6
20260831181149 74 219 0.9 3.5 0.00 0.55 0.27 96 1016.5
20260831180949 74 219 0.9 2.6 0.00 0.55 0.27 96 1016.6
20260831180749 74 219 0.0 2.6 0.00 0.55 0.27 96 1016.6
20260831180548 74 219 0.9 2.6 0.00 0.55 0.27 97 1016.6
20260831180348 74 219 0.9 2.6 0.00 0.55 0.27 96 1016.7
20260831180148 74 219 0.0 2.6 0.00 0.55 0.27 97 1016.7
20260831175947 74 219 0.9 2.6 0.00 0.55 0.27 97 1016.7
20260831175747 74 219 0.0 3.5 0.00 0.55 0.27 97 1016.7
20260831175547 74 219 0.0 3.5 0.00 0.55 0.27 97 1016.7
20260831175346 74 219 0.0 3.5 0.00 0.55 0.27 97 1016.7
20260831175146 73 186 0.9 3.5 0.00 0.55 0.27 97 1016.8
20260831174946 73 177 0.9 3.5 0.00 0.55 0.27 97 1016.8
20260831174745 73 192 0.9 3.5 0.00 0.55 0.27 97 1016.9
20260831174545 73 188 0.9 3.5 0.00 0.55 0.27 96 1016.9
20260831174345 73 195 0.9 3.5 0.00 0.55 0.27 96 1017.0
20260831174144 73 214 0.9 3.5 0.01 0.55 0.27 96 1017.0
20260831173944 73 221 1.7 3.5 0.01 0.55 0.27 96 1017.0
20260831173744 73 240 0.9 3.5 0.01 0.55 0.27 96 1017.0
20260831173544 74 196 0.9 3.5 0.01 0.55 0.27 96 1017.0
20260831173343 74 0 0.0 3.5 0.01 0.55 0.27 97 1017.1
20260831173143 74 222 0.0 3.5 0.01 0.55 0.27 97 1017.1
20260831172943 74 238 0.9 3.5 0.01 0.55 0.27 97 1017.1
20260831172742 74 140 0.0 3.5 0.01 0.55 0.27 97 1017.1
20260831172542 74 140 0.0 1.7 0.01 0.55 0.27 97 1017.1
20260831172342 74 186 0.9 1.7 0.01 0.55 0.27 97 1017.0
20260831172141 74 236 0.9 1.7 0.01 0.55 0.27 97 1017.0
20260831171941 74 235 0.9 1.7 0.01 0.55 0.27 97 1017.0
20260831171741 73 233 0.9 1.7 0.01 0.55 0.27 97 1017.0
20260831171540 73 232 0.0 1.7 0.01 0.55 0.27 97 1017.1
20260831171340 73 232 0.0 1.7 0.01 0.55 0.27 97 1017.2
20260831171140 73 220 0.9 1.7 0.01 0.55 0.27 97 1017.2
20260831170939 73 204 0.9 1.7 0.01 0.55 0.27 97 1017.1
20260831170739 73 221 0.0 2.6 0.01 0.55 0.27 97 1017.1
20260831170539 73 238 0.0 2.6 0.01 0.55 0.27 97 1017.2
20260831170339 73 246 0.0 2.6 0.01 0.55 0.27 97 1017.1
20260831170138 73 246 0.9 2.6 0.01 0.55 0.27 97 1017.2
20260831165938 73 246 0.0 2.6 0.01 0.55 0.27 97 1017.2
20260831165738 73 0 0.0 0.9 0.01 0.55 0.27 97 1017.3
20260831165537 73 0 0.0 0.0 0.01 0.55 0.27 97 1017.3
20260831165337 73 0 0.0 0.0 0.01 0.55 0.27 96 1017.3
20260831165137 73 0 0.0 1.7 0.01 0.55 0.27 96 1017.4
20260831164936 73 0 0.0 1.7 0.01 0.55 0.27 96 1017.3
20260831164736 73 0 0.0 2.6 0.01 0.55 0.27 96 1017.4
20260831164536 73 0 0.0 2.6 0.01 0.55 0.27 96 1017.4
20260831164335 73 179 0.9 2.6 0.01 0.55 0.27 96 1017.3
20260831164135 73 172 0.9 2.6 0.00 0.54 0.26 96 1017.4
20260831163935 73 249 0.0 2.6 0.00 0.54 0.26 96 1017.4
20260831163734 73 249 0.0 1.7 0.00 0.54 0.26 96 1017.5
20260831163534 73 249 0.0 1.7 0.00 0.54 0.26 96 1017.4
20260831163334 73 249 0.9 1.7 0.00 0.54 0.26 96 1017.3
20260831163134 73 248 0.0 1.7 0.00 0.54 0.26 96 1017.3
20260831162933 73 243 0.0 2.6 0.00 0.54 0.26 96 1017.3
20260831162733 73 243 0.0 2.6 0.00 0.54 0.26 96 1017.3
20260831162533 73 243 0.0 2.6 0.00 0.54 0.26 96 1017.4
20260831162332 73 243 0.0 2.6 0.00 0.54 0.26 96 1017.3
20260831162132 73 243 0.9 2.6 0.00 0.54 0.26 96 1017.3
20260831161932 73 243 0.9 1.7 0.00 0.54 0.26 96 1017.3
20260831161731 73 243 0.0 1.7 0.00 0.54 0.26 96 1017.3
20260831161531 73 243 0.0 1.7 0.00 0.54 0.26 96 1017.3
20260831161331 73 243 0.0 1.7 0.00 0.54 0.26 96 1017.4
20260831161130 73 243 0.0 1.7 0.00 0.54 0.26 96 1017.4
20260831160930 73 243 0.0 1.7 0.00 0.54 0.26 96 1017.4
20260831160730 73 243 0.0 1.7 0.00 0.54 0.26 96 1017.4
20260831160529 73 243 0.0 2.6 0.00 0.54 0.26 96 1017.4
20260831160329 73 243 0.0 2.6 0.00 0.54 0.26 96 1017.4
20260831160129 73 243 0.0 2.6 0.00 0.54 0.26 96 1017.4
20260831155929 73 250 0.9 2.6 0.00 0.54 0.26 96 1017.4
20260831155728 73 150 0.9 2.6 0.00 0.54 0.26 95 1017.3
20260831155528 73 155 0.9 2.6 0.00 0.54 0.26 95 1017.3
20260831155328 73 219 0.9 2.6 0.00 0.54 0.26 95 1017.4
20260831155128 73 232 0.9 2.6 0.00 0.54 0.26 95 1017.4
20260831154927 73 232 0.9 2.6 0.00 0.54 0.26 95 1017.4
20260831154727 73 232 0.9 2.6 0.00 0.54 0.26 95 1017.4
20260831154526 73 233 0.0 2.6 0.00 0.54 0.26 95 1017.4
20260831154326 73 255 0.9 2.6 0.00 0.54 0.26 95 1017.4
20260831154126 73 248 0.9 3.5 0.00 0.54 0.26 95 1017.4
20260831153925 73 145 0.9 3.5 0.00 0.54 0.26 95 1017.4
20260831153725 73 214 0.9 3.5 0.00 0.54 0.26 95 1017.4
20260831153525 73 232 0.9 3.5 0.00 0.54 0.26 95 1017.4
20260831153324 73 214 0.9 3.5 0.00 0.54 0.26 95 1017.4
20260831153124 73 166 0.0 1.7 0.00 0.54 0.26 96 1017.4
20260831152924 72 166 0.0 2.6 0.00 0.54 0.26 96 1017.4
20260831152724 72 166 0.0 2.6 0.00 0.54 0.26 95 1017.4
20260831152523 72 161 0.0 2.6 0.00 0.54 0.26 95 1017.3
20260831152323 72 174 0.9 2.6 0.00 0.54 0.26 95 1017.4
20260831152123 72 216 1.7 2.6 0.00 0.54 0.26 94 1017.5
20260831151922 72 217 1.7 2.6 0.00 0.54 0.26 94 1017.5
20260831151722 73 237 0.9 2.6 0.00 0.54 0.26 95 1017.5
20260831151522 73 243 0.9 2.6 0.00 0.54 0.26 95 1017.5
20260831151321 73 247 0.9 2.6 0.00 0.54 0.26 95 1017.5
20260831151121 73 243 0.9 2.6 0.00 0.54 0.26 95 1017.5
20260831150921 73 239 0.9 2.6 0.00 0.54 0.26 96 1017.5
20260831150720 72 233 1.7 2.6 0.00 0.54 0.26 97 1017.5
20260831150520 72 230 0.0 2.6 0.00 0.54 0.26 98 1017.5
20260831150320 72 226 0.0 2.6 0.00 0.54 0.26 98 1017.5
20260831150119 71 226 0.9 2.6 0.00 0.54 0.26 98 1017.6
20260831145919 71 226 0.9 2.6 0.00 0.55 0.26 98 1017.6
20260831145719 71 226 0.9 2.6 0.00 0.55 0.26 98 1017.5
20260831145518 71 226 0.0 2.6 0.00 0.55 0.26 98 1017.5
20260831145318 70 229 0.9 2.6 0.00 0.55 0.26 98 1017.5
20260831145118 70 234 0.9 2.6 0.00 0.55 0.26 98 1017.5
20260831144918 70 237 0.9 1.7 0.00 0.55 0.26 98 1017.6
20260831144717 70 237 0.9 1.7 0.00 0.55 0.26 98 1017.6
20260831144517 70 237 0.0 1.7 0.00 0.55 0.26 98 1017.6
20260831144317 70 237 0.0 0.9 0.00 0.55 0.26 99 1017.7
20260831144116 70 237 0.0 1.7 0.00 0.55 0.26 99 1017.7
20260831143916 70 237 0.0 1.7 0.00 0.55 0.26 99 1017.7
20260831143716 69 237 0.0 2.6 0.00 0.55 0.26 99 1017.6
20260831143515 69 237 0.0 2.6 0.00 0.55 0.26 98 1017.6
20260831143315 70 237 0.0 2.6 0.00 0.55 0.26 99 1017.6
20260831143115 69 237 0.0 2.6 0.01 0.55 0.26 99 1017.6
20260831142914 69 237 0.9 2.6 0.01 0.55 0.26 99 1017.5
20260831142714 70 237 0.0 1.7 0.01 0.55 0.26 100 1017.4
20260831142514 69 237 0.0 0.9 0.01 0.55 0.26 100 1017.4
20260831142314 69 237 0.0 0.9 0.02 0.55 0.26 100 1017.3
20260831142113 69 237 0.0 0.0 0.03 0.55 0.26 100 1017.4
20260831141913 69 0 0.0 0.9 0.04 0.55 0.26 100 1017.3
20260831141713 69 0 0.0 0.9 0.04 0.55 0.26 100 1017.4
20260831141512 69 0 0.0 0.9 0.05 0.55 0.26 100 1017.3
20260831141312 69 237 0.0 0.9 0.06 0.55 0.26 100 1017.3
20260831141112 69 237 0.0 0.9 0.06 0.55 0.26 100 1017.3
20260831140911 69 237 0.0 0.9 0.08 0.55 0.26 100 1017.3
20260831140711 69 237 0.0 0.9 0.08 0.55 0.26 100 1017.3
20260831140511 68 237 0.0 0.9 0.09 0.55 0.26 100 1017.3
20260831140310 68 237 0.0 0.9 0.09 0.55 0.26 100 1017.3
20260831140110 68 237 0.0 2.6 0.09 0.55 0.26 100 1017.3
20260831135910 68 237 0.0 2.6 0.10 0.59 0.26 100 1017.3
20260831135710 68 237 0.0 2.6 0.11 0.59 0.26 100 1017.3
20260831135509 68 237 0.0 2.6 0.11 0.59 0.26 100 1017.1
20260831135309 68 237 0.9 2.6 0.11 0.59 0.26 100 1017.1
20260831135109 68 237 0.0 1.7 0.12 0.59 0.26 100 1017.0
20260831134908 68 237 0.0 0.9 0.12 0.59 0.26 100 1017.0
20260831134708 68 237 0.0 1.7 0.12 0.59 0.26 100 1017.0
20260831134508 68 237 0.0 2.6 0.12 0.59 0.26 100 1017.0
20260831134307 68 237 0.0 2.6 0.12 0.59 0.26 100 1017.0
20260831134107 68 237 0.0 2.6 0.13 0.59 0.26 100 1016.9
20260831133907 68 237 0.0 2.6 0.13 0.59 0.26 100 1016.9
20260831133706 67 237 0.0 2.6 0.13 0.59 0.26 100 1016.9
20260831133506 67 237 0.0 2.6 0.13 0.59 0.26 100 1016.9
20260831133306 67 237 0.9 2.6 0.13 0.59 0.26 100 1017.0
20260831133105 67 237 0.0 1.7 0.12 0.58 0.25 100 1017.0
20260831132905 67 235 0.9 1.7 0.12 0.58 0.25 100 1017.0
20260831132705 67 235 0.0 1.7 0.12 0.58 0.25 100 1017.0
20260831132504 67 235 0.0 1.7 0.12 0.58 0.25 100 1017.0
20260831132306 67 236 0.0 1.7 0.11 0.57 0.24 100 1017.0
20260831132104 67 235 0.0 1.7 0.10 0.56 0.23 100 1017.1
20260831131904 67 235 0.0 1.7 0.09 0.55 0.22 100 1017.1
20260831131703 67 219 0.0 1.7 0.08 0.54 0.21 100 1017.1
20260831131503 67 219 0.0 1.7 0.08 0.54 0.21 100 1017.2
20260831131303 67 219 0.0 0.9 0.08 0.53 0.20 100 1017.2
20260831131102 67 219 0.0 0.9 0.07 0.52 0.19 100 1017.2
20260831130903 67 219 0.0 1.7 0.06 0.51 0.18 100 1017.4
20260831130702 67 218 0.0 1.7 0.05 0.50 0.17 100 1017.4
20260831130501 67 219 0.0 1.7 0.05 0.50 0.17 100 1017.5
20260831130301 67 219 0.9 1.7 0.05 0.50 0.17 100 1017.5
20260831130101 67 219 0.0 1.7 0.05 0.50 0.17 100 1017.6
20260831125900 67 219 0.0 1.7 0.04 0.49 0.16 100 1017.5
20260831125700 67 219 0.0 1.7 0.03 0.48 0.15 100 1017.5
20260831125500 67 218 0.0 0.9 0.03 0.48 0.15 100 1017.5
20260831125300 67 0 0.0 0.9 0.03 0.48 0.15 100 1017.5
20260831125059 67 0 0.0 0.0 0.02 0.47 0.14 100 1017.5
20260831124859 67 0 0.0 0.0 0.02 0.47 0.14 100 1017.5
20260831124659 67 0 0.0 0.0 0.02 0.47 0.14 100 1017.6
20260831124458 67 0 0.0 0.0 0.02 0.47 0.14 100 1017.5
20260831124258 67 0 0.0 0.0 0.01 0.46 0.13 100 1017.5
20260831124058 67 0 0.0 0.0 0.01 0.46 0.13 100 1017.6
20260831123857 67 0 0.0 0.0 0.01 0.46 0.13 100 1017.5
20260831123657 67 0 0.0 0.0 0.01 0.46 0.13 100 1017.5
20260831123457 67 0 0.0 0.9 0.01 0.46 0.13 100 1017.5
20260831123256 67 0 0.0 0.9 0.01 0.46 0.13 100 1017.5
20260831123056 67 0 0.0 0.9 0.01 0.46 0.13 100 1017.5
20260831122856 67 219 0.0 0.9 0.01 0.46 0.13 100 1017.5
20260831122656 67 219 0.0 0.9 0.01 0.46 0.13 100 1017.5
20260831122455 67 0 0.0 0.0 0.01 0.46 0.13 100 1017.6
20260831122255 67 0 0.0 0.0 0.01 0.46 0.13 100 1017.5
20260831122055 67 0 0.0 0.0 0.01 0.46 0.13 100 1017.5
20260831121854 67 0 0.0 0.0 0.01 0.46 0.13 100 1017.5
20260831121654 67 0 0.0 0.9 0.01 0.46 0.13 100 1017.6
20260831121454 67 0 0.0 0.9 0.00 0.45 0.12 100 1017.5
20260831121253 67 0 0.0 0.9 0.00 0.45 0.12 100 1017.5
20260831121053 67 219 0.0 0.9 0.00 0.45 0.12 100 1017.6
20260831120853 67 219 0.0 0.9 0.00 0.45 0.12 100 1017.5
20260831120652 67 218 0.0 0.9 0.00 0.45 0.12 100 1017.6
20260831120452 67 219 0.0 0.9 0.00 0.45 0.12 100 1017.6
20260831120252 67 219 0.0 0.9 0.00 0.45 0.12 100 1017.6
20260831120051 67 0 0.0 0.0 0.00 0.45 0.12 100 1017.6
20260831115851 67 0 0.0 1.7 0.00 0.45 0.12 100 1017.6
20260831115651 67 0 0.0 2.6 0.00 0.45 0.12 100 1017.6
20260831115451 67 0 0.0 2.6 0.00 0.45 0.12 100 1017.6
20260831115250 67 0 0.0 2.6 0.00 0.45 0.12 100 1017.6
20260831115050 67 219 0.0 2.6 0.00 0.45 0.12 100 1017.5
20260831114850 67 219 0.0 2.6 0.00 0.45 0.12 100 1017.6
20260831114649 67 0 0.0 0.0 0.00 0.45 0.12 100 1017.6
20260831114449 67 0 0.0 0.0 0.00 0.45 0.12 100 1017.6
20260831114249 67 0 0.0 0.0 0.00 0.45 0.12 100 1017.6
20260831114048 67 0 0.0 0.0 0.00 0.45 0.12 100 1017.6
20260831113848 67 0 0.0 0.0 0.00 0.45 0.12 100 1017.6
20260831113648 67 0 0.0 0.0 0.00 0.45 0.12 100 1017.7
20260831113447 67 0 0.0 0.0 0.00 0.45 0.12 100 1017.6
20260831113247 67 0 0.0 0.0 0.00 0.45 0.12 100 1017.7
20260831113047 67 0 0.0 0.0 0.00 0.45 0.12 100 1017.6
20260831112846 67 0 0.0 0.9 0.00 0.45 0.12 100 1017.6
20260831112646 67 0 0.0 0.9 0.00 0.45 0.12 100 1017.6
20260831112446 67 0 0.0 0.9 0.00 0.45 0.12 100 1017.7
20260831112246 67 219 0.0 0.9 0.00 0.45 0.12 100 1017.6
20260831112045 67 219 0.0 0.9 0.00 0.45 0.12 100 1017.6
20260831111845 67 219 0.0 0.9 0.00 0.45 0.12 100 1017.6
20260831111645 67 219 0.0 0.9 0.00 0.45 0.12 100 1017.6
20260831111444 66 218 0.0 0.9 0.00 0.45 0.12 100 1017.5
20260831111244 66 218 0.0 0.9 0.00 0.45 0.12 100 1017.4
20260831111044 66 218 0.0 0.9 0.00 0.45 0.12 100 1017.5
20260831110843 66 218 0.0 0.9 0.00 0.45 0.12 100 1017.6
20260831110643 66 218 0.0 0.9 0.00 0.45 0.12 100 1017.6
20260831110443 66 218 0.0 0.9 0.00 0.45 0.12 100 1017.5
20260831110242 66 0 0.0 0.9 0.00 0.45 0.12 100 1017.4
20260831110042 66 0 0.0 0.9 0.00 0.45 0.12 100 1017.5
20260831105842 66 219 0.0 0.9 0.00 0.45 0.12 100 1017.4
20260831105642 66 219 0.0 0.9 0.00 0.45 0.12 100 1017.3
20260831105441 66 219 0.0 0.9 0.00 0.45 0.12 100 1017.4
20260831105241 66 219 0.0 0.9 0.00 0.45 0.12 100 1017.4
20260831105041 66 0 0.0 0.9 0.00 0.45 0.12 100 1017.4
20260831104840 66 219 0.0 0.9 0.00 0.45 0.12 100 1017.4
20260831104640 66 219 0.0 0.9 0.00 0.45 0.12 100 1017.4
20260831104440 66 219 0.0 0.9 0.00 0.45 0.12 100 1017.3
20260831104239 66 219 0.0 0.9 0.00 0.45 0.12 100 1017.3
20260831104039 66 0 0.0 0.9 0.00 0.45 0.12 100 1017.3
20260831103839 66 0 0.0 0.9 0.00 0.45 0.12 100 1017.3
20260831103638 66 219 0.0 0.9 0.00 0.45 0.12 100 1017.4
20260831103438 66 219 0.0 0.9 0.00 0.45 0.12 100 1017.3
20260831103238 66 0 0.0 0.9 0.00 0.45 0.12 100 1017.3
20260831103037 66 0 0.0 0.9 0.00 0.45 0.12 100 1017.2
20260831102837 66 0 0.0 0.9 0.00 0.45 0.12 100 1017.2
20260831102637 66 219 0.0 0.9 0.00 0.45 0.12 100 1017.3
20260831102437 66 219 0.0 0.9 0.00 0.45 0.12 100 1017.3
20260831102236 66 0 0.0 0.9 0.00 0.45 0.12 100 1017.4
20260831102036 66 0 0.0 0.9 0.00 0.45 0.12 100 1017.3
20260831101836 66 219 0.0 0.9 0.00 0.45 0.12 100 1017.3
20260831101635 66 0 0.0 0.9 0.00 0.45 0.12 100 1017.3
20260831101435 66 0 0.0 0.0 0.00 0.45 0.12 100 1017.3
20260831101235 66 0 0.0 0.0 0.00 0.45 0.12 100 1017.4
20260831101034 66 0 0.0 0.0 0.00 0.45 0.12 100 1017.3
20260831100834 66 0 0.0 0.0 0.00 0.45 0.12 100 1017.2
20260831100634 66 0 0.0 0.0 0.00 0.45 0.12 100 1017.2
20260831100433 66 0 0.0 0.0 0.00 0.45 0.12 100 1017.3
20260831100233 66 0 0.0 0.0 0.00 0.45 0.12 100 1017.5
20260831100033 66 0 0.0 0.9 0.00 0.45 0.12 100 1017.4
20260831095832 66 0 0.0 0.9 0.00 0.45 0.12 100 1017.4
20260831095632 66 0 0.0 0.9 0.00 0.45 0.12 100 1017.4
20260831095432 66 219 0.0 0.9 0.00 0.45 0.12 100 1017.4
20260831095232 66 219 0.0 0.9 0.00 0.45 0.12 100 1017.3
20260831095031 66 0 0.0 0.0 0.00 0.45 0.12 100 1017.4
20260831094831 66 0 0.0 0.0 0.00 0.45 0.12 100 1017.4
20260831094631 66 0 0.0 0.0 0.00 0.45 0.12 100 1017.3
20260831094430 66 0 0.0 0.0 0.00 0.45 0.12 100 1017.3
20260831094230 66 0 0.0 0.0 0.00 0.45 0.12 100 1017.3
20260831094030 66 0 0.0 0.0 0.00 0.45 0.12 100 1017.4
20260831093829 66 0 0.0 0.0 0.00 0.45 0.12 100 1017.4
20260831093629 66 0 0.0 0.0 0.00 0.45 0.12 100 1017.3
20260831093429 66 0 0.0 0.0 0.00 0.45 0.12 100 1017.4
20260831093228 66 0 0.0 0.9 0.00 0.45 0.12 100 1017.4
20260831093028 66 0 0.0 0.9 0.00 0.45 0.12 100 1017.4
20260831092828 66 0 0.0 0.9 0.00 0.45 0.12 100 1017.3
20260831092628 66 0 0.0 0.9 0.00 0.45 0.12 100 1017.3
20260831092427 66 219 0.0 0.9 0.00 0.45 0.12 100 1017.3
20260831092227 66 219 0.0 0.9 0.00 0.45 0.12 100 1017.3
20260831092027 66 219 0.0 0.9 0.00 0.45 0.12 100 1017.4
20260831091826 66 219 0.0 0.9 0.00 0.45 0.12 100 1017.4
20260831091626 66 219 0.0 0.9 0.00 0.45 0.12 100 1017.4
20260831091426 66 218 0.0 0.9 0.00 0.45 0.12 100 1017.5
20260831091225 66 219 0.0 0.9 0.00 0.45 0.12 100 1017.5
20260831091025 66 219 0.0 0.9 0.00 0.45 0.12 100 1017.5
20260831090825 66 219 0.0 0.9 0.00 0.45 0.12 100 1017.5
20260831090624 66 219 0.0 0.9 0.00 0.45 0.12 100 1017.5
20260831090424 66 219 0.0 0.9 0.00 0.45 0.12 100 1017.5
20260831090224 66 0 0.0 0.9 0.00 0.45 0.12 100 1017.5
20260831090023 66 219 0.0 0.9 0.00 0.45 0.12 100 1017.5
20260831085823 66 219 0.0 0.9 0.00 0.45 0.12 100 1017.6
20260831085623 66 0 0.0 0.9 0.00 0.45 0.12 100 1017.5
20260831085422 66 0 0.0 0.9 0.00 0.45 0.12 100 1017.6
20260831085222 66 0 0.0 0.9 0.00 0.45 0.12 100 1017.6
20260831085022 66 219 0.0 0.9 0.00 0.45 0.12 100 1017.6
20260831084822 66 219 0.0 0.9 0.00 0.45 0.12 100 1017.6
20260831084621 66 219 0.0 0.9 0.01 0.45 0.12 100 1017.6
20260831084421 66 0 0.0 0.9 0.01 0.45 0.12 100 1017.6
20260831084221 66 219 0.0 0.9 0.01 0.45 0.12 100 1017.6
20260831084020 66 219 0.0 0.9 0.01 0.45 0.12 100 1017.6
20260831083820 66 0 0.0 0.9 0.01 0.45 0.12 100 1017.7
20260831083620 66 219 0.0 0.9 0.01 0.45 0.12 100 1017.7
20260831083419 66 0 0.0 0.9 0.01 0.45 0.12 100 1017.6
20260831083219 66 219 0.0 0.9 0.01 0.45 0.12 100 1017.6
20260831083019 66 0 0.0 0.9 0.01 0.45 0.12 100 1017.5
20260831082818 66 0 0.0 0.0 0.01 0.45 0.12 100 1017.5
20260831082618 66 0 0.0 0.0 0.01 0.45 0.12 100 1017.6
20260831082418 66 0 0.0 0.0 0.01 0.45 0.12 100 1017.6
20260831082218 66 0 0.0 0.0 0.01 0.45 0.12 100 1017.6
20260831082017 66 0 0.0 0.0 0.01 0.45 0.12 100 1017.7
20260831081817 66 0 0.0 0.0 0.01 0.45 0.12 100 1017.7
20260831081617 66 0 0.0 0.0 0.01 0.45 0.12 100 1017.8
20260831081416 66 0 0.0 0.0 0.01 0.45 0.12 100 1017.8
20260831081216 66 0 0.0 0.0 0.01 0.45 0.12 100 1017.8
20260831081016 66 0 0.0 0.0 0.01 0.45 0.12 100 1017.8
20260831080815 66 0 0.0 0.9 0.01 0.45 0.12 100 1017.7
20260831080615 66 0 0.0 0.9 0.01 0.45 0.12 100 1017.7
20260831080415 66 0 0.0 0.9 0.01 0.45 0.12 100 1017.7
20260831080214 66 0 0.0 0.9 0.01 0.45 0.12 100 1017.8
20260831080014 66 219 0.0 0.9 0.01 0.45 0.12 100 1017.9
20260831075814 66 218 0.0 0.9 0.01 0.45 0.12 100 1017.9
20260831075613 66 0 0.0 0.0 0.01 0.45 0.12 100 1017.9
20260831075413 66 0 0.0 0.0 0.01 0.45 0.12 100 1017.9
20260831075213 66 0 0.0 0.9 0.01 0.45 0.12 100 1018.0
20260831075012 66 0 0.0 0.9 0.01 0.45 0.12 100 1018.0
20260831074812 66 0 0.0 0.9 0.00 0.44 0.11 100 1017.9
20260831074612 66 219 0.0 0.9 0.00 0.44 0.11 100 1017.9
20260831074412 66 219 0.0 0.9 0.00 0.44 0.11 100 1017.9
20260831074211 66 219 0.0 0.9 0.00 0.44 0.11 100 1017.9
20260831074011 66 0 0.0 0.9 0.00 0.44 0.11 100 1018.0
20260831073811 66 0 0.0 0.9 0.00 0.44 0.11 100 1018.1
20260831073610 66 218 0.0 0.9 0.00 0.44 0.11 100 1018.1
20260831073410 66 218 0.0 0.9 0.00 0.44 0.11 100 1018.2
20260831073210 66 0 0.0 0.9 0.00 0.44 0.11 100 1018.1
20260831073009 66 0 0.0 0.9 0.00 0.44 0.11 100 1018.2
20260831072809 66 219 0.0 0.9 0.00 0.44 0.11 100 1018.2
20260831072609 66 219 0.0 0.9 0.00 0.44 0.11 100 1018.2
20260831072408 66 219 0.0 0.9 0.00 0.44 0.11 100 1018.3
20260831072208 66 0 0.0 0.0 0.01 0.44 0.11 100 1018.3
20260831072008 66 0 0.0 0.0 0.01 0.44 0.11 100 1018.3
20260831071807 66 0 0.0 0.0 0.02 0.44 0.11 100 1018.3
20260831071607 66 0 0.0 0.0 0.02 0.44 0.11 100 1018.4
20260831071407 66 0 0.0 0.0 0.02 0.44 0.11 100 1018.5
20260831071006 66 0 0.0 0.0 0.02 0.44 0.11 100 1018.5
20260831070806 66 0 0.0 0.0 0.03 0.44 0.11 100 1018.6
20260831070606 66 0 0.0 0.0 0.03 0.44 0.11 100 1018.5
20260831070405 66 0 0.0 0.0 0.03 0.44 0.11 100 1018.6
20260831070205 66 0 0.0 0.0 0.04 0.44 0.11 100 1018.6
20260831070005 66 0 0.0 0.9 0.04 0.44 0.11 100 1018.7
20260831065804 66 0 0.0 0.9 0.05 0.44 0.11 100 1018.7
20260831065604 66 0 0.0 0.9 0.05 0.44 0.11 100 1018.8
20260831065404 66 218 0.0 0.9 0.06 0.44 0.11 100 1018.8
20260831065203 66 219 0.0 0.9 0.06 0.44 0.11 100 1018.9
20260831065003 66 219 0.0 0.9 0.06 0.44 0.11 100 1018.9
20260831064803 66 219 0.0 0.9 0.06 0.44 0.11 100 1018.9
20260831064603 66 219 0.0 0.9 0.07 0.44 0.11 100 1019.0
20260831064402 66 219 0.0 0.9 0.07 0.44 0.11 100 1018.9
20260831064202 66 219 0.0 0.9 0.07 0.44 0.11 100 1018.9
20260831064002 66 219 0.0 0.9 0.07 0.44 0.11 100 1019.0
20260831063801 66 219 0.0 1.7 0.07 0.44 0.11 100 1019.0
20260831063601 66 219 0.0 1.7 0.07 0.44 0.11 100 1019.0
20260831063401 66 219 0.0 1.7 0.07 0.44 0.11 100 1019.0
20260831063200 66 219 0.0 1.7 0.07 0.44 0.11 100 1019.0
20260831063000 66 219 0.0 1.7 0.07 0.44 0.11 100 1019.0
20260831062800 66 219 0.0 1.7 0.08 0.44 0.11 100 1019.0
20260831062559 66 219 0.0 1.7 0.08 0.44 0.11 100 1018.9
20260831062359 66 219 0.9 1.7 0.07 0.43 0.10 100 1019.0
20260831062159 66 219 0.9 1.7 0.07 0.43 0.10 100 1019.0
20260831061958 66 219 0.0 0.9 0.07 0.43 0.10 100 1019.1
20260831061758 66 0 0.0 0.9 0.07 0.42 0.09 100 1019.0
20260831061558 66 219 0.0 0.9 0.07 0.42 0.09 100 1019.0